Location: Lake Almanor
(40.2485°N, 121.1442°W)
Time: 12:16:49
(UTC-08:00)

N. Korean satellite - Pass Details

Date: 02 February 2020
Orbit: 456 x 505 km, 97.2° (Epoch: 19 February)

Event Time Altitude Azimuth Distance (km) Brightness Sun altitude
Rises 05:18:16 0° 22° (NNE) 2,572 10.5 -22.1°
Reaches altitude 10° 05:20:31 10° 33° (NNE) 1,694 9.7 -21.7°
Maximum altitude 05:23:46 31° 97° (E) 904 8.6 -21.1°
Drops below altitude 10° 05:27:03 10° 160° (SSE) 1,701 9.6 -20.4°
Sets 05:29:18 0° 171° (S) 2,584 10.4 -20.0°
